Location: Hungerford
(51.4167°N, 1.5167°W)
Time: 22:56:22
(UTC+00:00)

SL-08 RB Rocket - Pass Details

Date: 18 September 2020
Orbit: 647 x 684 km, 97.8° (Epoch: 30 October)

Event Time Altitude Azimuth Distance (km) Brightness Sun altitude
Exits shadow 19:32:42 - 166° (SSE) 2,937 6.7 -13.0°
Reaches altitude 10° 19:34:44 10° 167° (SSE) 2,102 6.0 -13.3°
Maximum altitude 19:39:20 83° 256° (WSW) 681 3.8 -14.0°
Drops below altitude 10° 19:43:56 10° 345° (NNW) 2,095 6.8 -14.7°
Sets 19:46:09 0° 346° (NNW) 3,007 7.6 -15.0°
